[[{"header":{"parameterUnit":"m.s-1","parameterCategory":1,"la1":30.2991,"la2":30.254,"lo1":-89.0895,"lo2":-89.0444,"dy":0.0017,"dx":0.0017,"nx":28,"ny":28,"refTime":"2024-10-21T03:00:00:Z","depth":0,"parameterNumber":2,"parameterNumberName":"U-component_of_WINDS"},"data":[0,0,0,0,0,0,0,0,0,0,0,0,0,0,0,0,0,0,0,0,0,0,0,0,0,0,0,0,0,0,0,0,0,0,0,0,0,0,0,0,0,0,0,0,0,0,0,0,0,0,0,0,0,0,0,0,0,0,-2.977,-2.977,0,-2.9769,-2.9769,-2.9769,-2.9621,-2.9617,-2.9613,-2.961,-2.9609,-2.9612,-2.9615,0,0,0,0,0,0,0,0,0,0,0,0,0,-2.9645,-2.9648,-2.977,-2.977,-2.977,-2.9769,-2.9769,-2.9769,-2.9622,-2.9617,-2.9612,-2.9608,-2.9607,-2.9612,-2.9616,0,0,0,0,0,0,0,0,0,0,0,0,0,-2.9677,-2.9649,-2.977,-2.9697,-2.969,-2.9769,-2.9769,-2.9769,-2.9623,-2.9617,-2.9611,-2.9606,-2.9606,-2.9611,-2.9616,-2.9765,0,0,-2.9633,-2.9635,0,0,0,0,0,0,0,0,-2.9676,-2.9682,-2.9707,-2.9702,-2.9695,-2.9689,-2.9724,-2.9767,-2.9624,-2.9648,-2.961,-2.9603,-2.964,-2.9642,-2.9655,-2.9765,-2.9765,-2.9633,-2.9636,-2.9639,-2.964,0,0,0,0,0,0,0,-2.9674,-2.9681,-2.9769,-2.9708,-2.97,-2.9664,-2.9662,-2.9732,-2.9677,-2.9646,-2.9635,-2.9637,-2.9635,-2.965,-2.9653,-2.9765,-2.9633,-2.9638,-2.9641,-2.9643,-2.9998,-3.0004,0,0,0,0,0,0,-2.9682,-2.9681,-2.9769,-2.9769,-2.9671,-2.9671,-2.9669,-2.9697,-2.9675,-2.9667,-2.9642,-2.963,-2.9644,-2.9647,-2.9653,-2.9827,-2.9639,-2.9644,-2.9647,-2.9992,-3.0,-3.0006,0,0,0,0,0,0,-2.968,-2.9691,-2.9769,-2.9722,-2.9729,-2.9679,-2.9712,-2.97,-2.9714,-2.9673,-2.9662,-2.9667,-2.9639,-2.9645,-2.9739,-2.9825,-2.9646,-2.9651,-2.9985,-2.9994,-3.0003,-3.0176,0,0,0,0,0,0,-2.9677,-2.9691,-2.9747,-2.9724,-2.9732,-2.9856,-2.9717,-2.9704,-2.9724,-2.9708,-2.9693,-2.9685,-2.9635,-2.9731,-2.9744,-2.9829,-2.9655,-2.9977,-2.9989,-3.0,-3.0163,-3.019,-3.0214,0,0,0,0,0,-2.9673,-2.9796,-2.9751,-2.9762,-2.9802,-2.9861,-2.9866,-2.9806,-2.9731,-2.9787,-2.9761,-2.9686,-2.9813,-2.9742,-2.9755,-2.9843,-2.9971,-2.9986,-2.9999,-3.0151,-3.0185,-3.0213,0,0,0,0,0,0,-2.983,-2.9791,-2.9741,-2.9861,-2.9865,-2.9836,-2.9905,-2.9843,-2.9869,-2.9854,-2.9778,-2.9775,-2.9881,-2.987,-2.9793,-2.9986,-2.9879,-2.9896,-2.999,-3.0022,-3.0047,-3.0048,-2.966,0,0,0,0,0,-2.9878,-2.993,-2.9893,-3.0002,-3.0007,-2.9956,-2.998,-2.9933,-2.9935,-2.9936,-2.9916,-2.9921,-2.9962,-2.9991,-3.0026,-3.0159,-3.0155,-3.0226,-3.0252,-3.0273,-3.029,-3.0361,-3.0393,-3.0053,-3.0052,-3.0052,0,0,-2.9979,-2.9965,-3.0002,-3.0034,-3.0032,-3.0088,-2.9959,-3.0023,-3.0064,-2.9946,-3.0033,-3.0019,-3.0019,-3.0134,-3.0183,-3.0128,-3.0383,-3.0291,-3.0308,-3.0313,-3.0379,-3.0411,-3.044,-3.0062,-3.006,-3.0059,0,0,-3.0192,-3.0186,-3.0277,-3.0278,-3.0276,-3.0242,-3.0264,-3.0244,-3.023,-3.0316,-3.023,-3.0276,-3.0348,-3.0353,-3.0364,-3.0579,-3.0512,-3.0592,-3.0728,-3.0798,-3.0825,-3.0849,-3.0927,-3.0956,-3.0608,-3.0609,-3.0609,0,-3.0318,-3.0399,-3.0331,-3.0402,-3.0419,-3.0314,-3.0406,-3.041,-3.0421,-3.0435,-3.0373,-3.0462,-3.0454,-3.0569,-3.0622,-3.0634,-3.0657,-3.0595,-3.0827,-3.0849,-3.087,-3.0945,-3.0974,-3.0619,-3.0618,-3.0617,-3.0616,0,-3.0554,-3.0612,-3.0685,-3.0699,-3.0724,-3.0804,-3.0749,-3.0782,-3.0733,-3.0705,-3.0795,-3.0782,-3.0814,-3.0837,-3.0789,-3.0946,-3.0912,-3.084,-3.0731,-3.0914,-3.0983,-3.1011,-3.0633,-3.063,-3.0627,-3.0624,0,0,-3.0868,-3.0843,-3.0872,-3.0877,-3.0868,-3.0911,-3.0987,-3.1018,-3.1049,-3.1059,-3.1122,-3.1186,-3.1119,-3.1132,-3.1084,-3.1145,-3.1319,-3.1065,-3.1064,-3.1115,-3.1493,-3.155,-3.1584,-3.1273,-3.1278,-3.1282,-3.1494,0,-3.1076,-3.1206,-3.1147,-3.1283,-3.1336,-3.1237,-3.1303,-3.1305,-3.1281,-3.1322,-3.1294,-3.1341,-3.1248,-3.1256,-3.1312,-3.1286,-3.1394,-3.1269,-3.1332,-3.1335,-3.1338,-3.1619,-3.1679,-3.1879,-3.152,-3.1524,-3.1527,0,-3.1337,-3.1359,-3.1501,-3.1483,-3.1503,-3.1564,-3.1589,-3.1628,-3.1629,-3.1606,-3.1622,-3.156,-3.1633,-3.1523,-3.1624,-3.1541,-3.1563,-3.1554,-3.156,-3.1566,-3.1445,-3.1635,-3.1941,-3.1973,-3.1568,-3.1565,-3.1562,0,-3.1555,-3.162,-3.1713,-3.172,-3.1702,-3.1747,-3.1742,-3.1736,-3.1759,-3.1779,-3.1794,-3.1823,-3.184,-3.1864,-3.1811,-3.1735,-3.192,-3.1805,-3.1905,-3.1907,-3.1951,-3.195,-3.2268,-3.1961,-3.1961,-3.196,-3.1959,0,-3.1795,-3.1886,-3.1811,-3.1869,-3.1968,-3.1899,-3.1999,-3.1983,-3.1979,-3.2032,-3.1947,-3.1999,-3.1925,-3.1969,-3.1928,-3.2019,-3.2027,-3.2012,-3.2,-3.2021,-3.2024,-3.2036,-3.2022,-3.1968,-3.1966,-3.1965,-3.1963,0,-3.2056,-3.2009,-3.2105,-3.2079,-3.2075,-3.215,-3.2128,-3.2181,-3.215,-3.2218,-3.223,-3.2182,-3.223,-3.218,-3.2224,-3.2196,-3.232,-3.2286,-3.2321,-3.2312,-3.2416,-3.2408,-3.2756,-3.2799,-3.2463,-3.2466,-3.2469,0,-3.2214,-3.2282,-3.2264,-3.2293,-3.2293,-3.2342,-3.2365,-3.2299,-3.2327,-3.2332,-3.2385,-3.2425,-3.2455,-3.2536,-3.2506,-3.2539,-3.2508,-3.2627,-3.2512,-3.2532,-3.2513,-3.2511,-3.2518,-3.2652,-3.2656,-3.2659,-3.2662,0,-3.2499,-3.2473,-3.251,-3.2539,-3.2569,-3.2589,-3.2602,-3.2631,-3.2563,-3.2598,-3.2646,-3.2669,-3.2715,-3.2757,-3.2782,-3.2775,-3.2709,-3.2698,-3.2723,-3.2747,-3.2765,-3.2759,-3.2387,-3.2691,-3.2688,-3.2686,-3.2684,-3.2683,-3.2715,-3.2771,-3.2768,-3.2812,-3.2815,-3.283,-3.2879,-3.2854,-3.2893,-3.2926,-3.2884,-3.2944,-3.2943,-3.2969,-3.2971,-3.3017,-3.2966,-3.3002,-3.3012,-3.3023,-3.304,-3.2755,-3.3021,-3.302,-3.3019,-3.3018,-3.3018,0,-3.2998,-3.2991,-3.3033,-3.3054,-3.3089,-3.3022,-3.3033,-3.3067,-3.3121,-3.3125,-3.3156,-3.3213,-3.3253,-3.3226,-3.326,-3.3303,-3.3273,-3.3314,-3.3312,-3.3312,-3.3082,-3.3058,-3.3338,-3.3338,-3.3338,-3.3338,-3.3338,-3.3338,-3.315,-3.3243,-3.3217,-3.331,-3.3302,-3.3361,-3.3373,-3.3386,-3.339,-3.3457,-3.349,-3.3471,-3.3463,-3.3496,-3.3531,-3.3522,-3.354,-3.3593,-3.3573,-3.3359,-3.3328,-3.3298,-3.3275,-3.3596,-3.3597,-3.3799,-3.3801,-3.3803]},{"header":{"parameterUnit":"m.s-1","parameterCategory":1,"la1":30.2991,"la2":30.254,"lo1":-89.0895,"lo2":-89.0444,"dy":0.0017,"dx":0.0017,"nx":28,"ny":28,"refTime":"2024-10-21T03:00:00:Z","depth":0,"parameterNumber":3,"parameterNumberName":"V-component_of_WINDS"},"data":[0,0,0,0,0,0,0,0,0,0,0,0,0,0,0,0,0,0,0,0,0,0,0,0,0,0,0,0,0,0,0,0,0,0,0,0,0,0,0,0,0,0,0,0,0,0,0,0,0,0,0,0,0,0,0,0,0,0,-1.5856,-1.5857,0,-1.5949,-1.595,-1.5951,-1.5998,-1.5998,-1.5998,-1.5999,-1.6092,-1.6094,-1.6097,0,0,0,0,0,0,0,0,0,0,0,0,0,-1.5716,-1.5719,-1.5856,-1.5857,-1.5858,-1.5949,-1.595,-1.5952,-1.5998,-1.5998,-1.5998,-1.5999,-1.6091,-1.6094,-1.6097,0,0,0,0,0,0,0,0,0,0,0,0,0,-1.579,-1.572,-1.5856,-1.5893,-1.5897,-1.5949,-1.595,-1.5952,-1.5998,-1.5998,-1.5998,-1.5999,-1.609,-1.6094,-1.6098,-1.6119,0,0,-1.6109,-1.611,0,0,0,0,0,0,0,0,-1.5786,-1.5795,-1.5886,-1.589,-1.5895,-1.5962,-1.5936,-1.6008,-1.5998,-1.596,-1.5999,-1.5999,-1.6049,-1.6056,-1.6073,-1.6124,-1.6128,-1.6109,-1.6111,-1.6113,-1.6114,0,0,0,0,0,0,0,-1.5781,-1.5791,-1.5893,-1.5887,-1.5893,-1.5904,-1.5914,-1.5949,-1.6003,-1.5963,-1.5967,-1.5977,-1.6051,-1.6069,-1.6076,-1.6129,-1.6109,-1.6112,-1.6115,-1.6116,-1.6202,-1.6202,0,0,0,0,0,0,-1.577,-1.5787,-1.589,-1.5896,-1.5839,-1.5906,-1.5918,-1.5941,-1.6003,-1.6012,-1.5977,-1.5979,-1.6063,-1.6071,-1.6079,-1.6109,-1.6113,-1.6116,-1.6118,-1.6201,-1.6202,-1.6202,0,0,0,0,0,0,-1.5767,-1.5779,-1.5886,-1.5842,-1.5857,-1.5909,-1.5934,-1.5942,-1.5961,-1.6013,-1.6023,-1.5986,-1.6064,-1.6074,-1.6109,-1.6113,-1.6118,-1.6121,-1.6201,-1.6201,-1.6202,-1.6168,0,0,0,0,0,0,-1.5762,-1.5777,-1.5787,-1.5842,-1.5859,-1.5915,-1.5934,-1.5944,-1.5967,-1.5971,-1.6024,-1.6033,-1.6064,-1.6103,-1.6113,-1.6118,-1.6124,-1.6201,-1.6201,-1.6202,-1.6169,-1.6166,-1.6165,0,0,0,0,0,-1.5757,-1.5773,-1.5787,-1.5799,-1.5872,-1.5915,-1.5925,-1.5961,-1.5967,-1.5977,-1.601,-1.6031,-1.611,-1.6106,-1.6117,-1.6124,-1.6201,-1.6201,-1.6202,-1.6169,-1.6167,-1.6165,0,0,0,0,0,0,-1.5716,-1.5781,-1.5797,-1.5831,-1.5867,-1.5923,-1.5936,-1.5957,-1.5992,-1.5993,-1.6036,-1.6048,-1.6079,-1.6105,-1.6099,-1.6148,-1.6158,-1.616,-1.613,-1.6128,-1.6126,-1.6119,-1.6127,0,0,0,0,0,-1.5711,-1.5741,-1.5796,-1.5821,-1.5838,-1.5884,-1.5904,-1.5929,-1.5968,-1.5983,-1.6019,-1.6056,-1.6089,-1.611,-1.6143,-1.6172,-1.6184,-1.6182,-1.618,-1.6178,-1.618,-1.6197,-1.6196,-1.6202,-1.6202,-1.6202,0,0,-1.5701,-1.574,-1.5756,-1.5814,-1.5845,-1.5874,-1.5896,-1.5927,-1.5949,-1.5988,-1.6023,-1.6051,-1.6094,-1.6126,-1.6142,-1.6149,-1.6181,-1.6178,-1.6176,-1.6179,-1.6197,-1.6196,-1.6196,-1.6202,-1.6202,-1.6202,0,0,-1.5697,-1.573,-1.5754,-1.5785,-1.5831,-1.5862,-1.5867,-1.592,-1.594,-1.5976,-1.6005,-1.6032,-1.6088,-1.6118,-1.614,-1.6147,-1.6167,-1.6157,-1.6146,-1.6162,-1.6162,-1.6162,-1.6164,-1.6164,-1.6158,-1.6158,-1.6158,0,-1.5679,-1.5725,-1.5764,-1.5793,-1.5817,-1.5853,-1.5878,-1.5905,-1.596,-1.5975,-1.5982,-1.6053,-1.6085,-1.6124,-1.6126,-1.6143,-1.615,-1.6151,-1.6159,-1.6159,-1.616,-1.6162,-1.6163,-1.6156,-1.6156,-1.6157,-1.6157,0,-1.57,-1.5731,-1.5745,-1.5798,-1.5823,-1.585,-1.5892,-1.5913,-1.5935,-1.5964,-1.6,-1.604,-1.6081,-1.6093,-1.6114,-1.6135,-1.6138,-1.6151,-1.6162,-1.6157,-1.616,-1.6161,-1.6154,-1.6154,-1.6155,-1.6155,0,0,-1.5674,-1.5747,-1.5751,-1.5775,-1.5829,-1.5854,-1.5882,-1.5923,-1.594,-1.5976,-1.6,-1.6047,-1.6059,-1.6085,-1.611,-1.6124,-1.6127,-1.6136,-1.6138,-1.6133,-1.6152,-1.6141,-1.6142,-1.6141,-1.6141,-1.6141,-1.6148,0,-1.5678,-1.573,-1.5765,-1.5803,-1.5833,-1.5867,-1.5891,-1.5926,-1.5954,-1.5983,-1.6013,-1.6045,-1.606,-1.6075,-1.6091,-1.6123,-1.6131,-1.6123,-1.6163,-1.6164,-1.6151,-1.6144,-1.6133,-1.6138,-1.615,-1.615,-1.615,0,-1.569,-1.5725,-1.5766,-1.5817,-1.583,-1.5851,-1.5892,-1.5919,-1.5959,-1.5978,-1.6006,-1.6032,-1.6062,-1.607,-1.6112,-1.6106,-1.6124,-1.6142,-1.6143,-1.6148,-1.6157,-1.6149,-1.614,-1.614,-1.6152,-1.6152,-1.6152,0,-1.5666,-1.5725,-1.5757,-1.5776,-1.5835,-1.5849,-1.5875,-1.5915,-1.5937,-1.5972,-1.5987,-1.6025,-1.6046,-1.6074,-1.6109,-1.6112,-1.6147,-1.6158,-1.6163,-1.6162,-1.6169,-1.6168,-1.6163,-1.6181,-1.6181,-1.6181,-1.6181,0,-1.5668,-1.5691,-1.5747,-1.5767,-1.5794,-1.5834,-1.5859,-1.5887,-1.5923,-1.5948,-1.598,-1.6003,-1.6048,-1.6076,-1.6103,-1.6133,-1.6142,-1.6158,-1.6165,-1.6156,-1.6153,-1.6168,-1.6169,-1.6181,-1.6181,-1.6181,-1.6181,0,-1.5646,-1.5685,-1.5722,-1.5775,-1.5788,-1.5806,-1.5851,-1.5871,-1.5901,-1.5932,-1.5942,-1.5987,-1.6022,-1.606,-1.6107,-1.6126,-1.6154,-1.6164,-1.6141,-1.6145,-1.6148,-1.6147,-1.6152,-1.6154,-1.617,-1.6169,-1.6169,0,-1.5645,-1.5664,-1.5719,-1.5738,-1.5762,-1.5793,-1.5816,-1.5856,-1.5878,-1.5925,-1.5939,-1.5977,-1.6009,-1.6062,-1.6099,-1.6135,-1.6146,-1.6146,-1.6152,-1.6142,-1.6146,-1.6145,-1.6147,-1.6144,-1.6143,-1.6143,-1.6143,0,-1.5637,-1.5655,-1.5688,-1.5726,-1.5753,-1.5785,-1.5819,-1.5833,-1.5879,-1.5902,-1.5938,-1.5963,-1.6011,-1.6048,-1.6088,-1.6114,-1.6136,-1.614,-1.6144,-1.6134,-1.6119,-1.6127,-1.6135,-1.614,-1.6141,-1.6141,-1.6141,-1.6141,-1.5626,-1.5644,-1.5686,-1.5721,-1.575,-1.578,-1.5802,-1.5833,-1.5864,-1.5907,-1.5928,-1.5964,-1.6003,-1.606,-1.6085,-1.6113,-1.612,-1.6124,-1.6125,-1.6126,-1.6123,-1.6115,-1.612,-1.6121,-1.6121,-1.6121,-1.6121,0,-1.562,-1.5649,-1.568,-1.5726,-1.5753,-1.5772,-1.581,-1.5831,-1.5862,-1.5897,-1.5928,-1.5969,-1.6004,-1.6044,-1.6081,-1.6096,-1.6107,-1.6104,-1.6104,-1.6109,-1.6115,-1.6109,-1.6095,-1.6095,-1.6095,-1.6095,-1.6095,-1.6095,-1.5621,-1.5653,-1.5675,-1.5722,-1.575,-1.5786,-1.5805,-1.5833,-1.5861,-1.5906,-1.5936,-1.5961,-1.5998,-1.6038,-1.6071,-1.6082,-1.6094,-1.6089,-1.6102,-1.6107,-1.6109,-1.6111,-1.6105,-1.6091,-1.6091,-1.6094,-1.6094,-1.6094]}]]